Weather in Pervoye Turkmenevo

Russia / Republic of Bashkortostan     52°52′37″N   58°30′58″E
temp.,
°C
wind,
m/s
gust,
m/s
humid.,
%
clouds,
%
prec.,
mm/h
press.,
hPa
HPBL,
m
6 march, sat
sat623:00−4w7158740 0.4 1006583
02:00−10wnw34886 0.0 101075
05:00−14w23923 0.0 101320
08:00−15w22942 0.0 101320
11:00−9w268324 0.0 1014426
14:00−5w367312 0.0 10151093
17:00−6w367835 0.0 1014224
20:00−10w348594 0.0 101432
7 march, sun
sun723:00−11w239097 0.0 101430
02:00−11wsw1188100 0.0 101221
05:00−10ene1197100 0.4 101027
08:00−10nne3596100 1.9 1007179
11:00−9nne5795100 3.6 1005357
14:00−8n5893100 1.3 1004547
17:00−7nnw6885100 2.3 1006870
20:00−13wnw6138337 0.0 1010290
8 march, mon
mon823:00−17w478819 0.0 1014124
02:00−19wsw33950 0.0 101431
05:00−17wsw369117 0.0 1014136
08:00−15ssw3892100 0.0 1013220
11:00−9sw91585100 0.1 1011913
14:00−6sw10168399 0.1 10091211
17:00−6sw9168299 0.2 10081088
20:00−6sw7168584 0.0 1008747
9 march, tue
tue923:00−6sw7159092 0.1 1008570
02:00−6sw6149076 0.1 1007526
05:00−6sw7168672 0.3 1006643
08:00−6sw8168788 0.1 1006724
11:00−7w7117876 0.4 10101038
14:00−6w69764 0.0 10121073
17:00−7w598045 0.0 1012574
20:00−13w338799 0.0 101427
10 march, wed
wed1023:00−16wsw229399 0.0 101620
02:00−16w2292100 0.0 101520
05:00−17w2290100 0.0 101420
08:00−18w1290100 0.0 101420
11:00−13ene1084100 0.0 1013127
14:00−11e228893 0.0 1011266
17:00−12ne349497 0.3 1008299
20:00−12nne4796100 0.8 1008319